METEOR 2-5 DEB, 28973

Orbit data source: Space-Track

METEOR 2-5 DEB, 28973 is space debris in LEO originally from a launch on Wed, 31 Oct 1979 UTC launched from the Plesetsk Missile And Space Complex (PKMTR). Debris objects in space refer to the collection of defunct objects orbiting the Earth. Examples of debris include non-operational satellites, rocket bodies, and fragments generated from explosions, collisions, or faulty payload assembly.

Loading next visibility...
Identifier
28973, 1979-095J
Orbit
LEO
Country
Flag of CISCIS
Related business
Manufacturer
Unknown
Mission
Spacecraft
Bus & Motor
Unknown
Mass
Unknown
Launch date (UTC)
1979-10-31 (47 years ago)
Launch vehicle
Unknown
Launch site
Plesetsk Missile And Space Complex (PKMTR)
Object type
Payload
Rocket body
Debris
Shape & HBR
Unknown shape, 0.1 m
Radar Cross Section
Small (<0.1 m²)

Expand to show TLE details & history
Last TLE update: 3 days ago

TLE from 3 days ago
0 METEOR 2-5 DEB
1 28973U 79095J   26170.47997250  .00002993  00000-0  82482-3 0  9998
2 28973  81.1937  88.0708 0010550  81.5591 278.6795 14.46671756107415
Epoch: 2026-06-19T11:31Z
TLE epoch observation values (Epoch: 2026-06-19T11:31:09.624Z)
Latitude
-0.00008°
Longitude
7.57234°
Altitude
738.362 km
Speed
7.486 km/s
True Right ascension
05h 52m 16s
True Declination
0° 00' 00"
Sunlit
Object was in daylight at epoch
Visualization orbit readout
Latitude
Unknown
Longitude
Unknown
Altitude
Unknown
Speed
Unknown
Apparent Right ascension
Unknown
Apparent Declination
Unknown
Sunlit
N/A
Visualization observer readout
Local Sidereal Time
23:20:02
Azimuth
Unknown
Elevation
Unknown
Doppler factor
Unknown
Orbital elements
Apogee altitude
741.17 km
Perigee altitude
726.165 km
Semi-major axis
7,111.804 km
Eccentricity
0.00106
Inclination
81.1937°
RAAN
88.0708°
Arg. of periapsis
81.5591°
True anomaly
278.55997°
Mean anomaly
278.6795°
Eccentric anomaly
278.61974°
Mean motion
3.61887 °/min
Orbital period
99.48 mins
BSTAR
0.00082482
Loading maneuver chart data...
Computing Atmospheric mass density...

Documentation

Showing up to 5 results
|